DW6064 Weather Reports


time (UTC)temp
C
wind
direction
speed
KPH
gust
KPH
rain 1hr
cm
rain 24hr
cm
rain mn
cm
humidity
%
barometer
mb
20260903053540 22 17 6.4 14.5 0.00 0.81 0.00 88 1016.7
20260903053038 22 355 3.2 14.5 0.00 0.81 0.00 87 1016.6
20260903052536 22 346 3.2 8.0 0.00 0.81 0.00 87 1016.7
20260903052036 22 355 3.2 8.0 0.00 0.81 0.00 87 1016.5
20260903051534 22 9 3.2 6.4 0.00 0.81 0.00 86 1016.4
20260903051035 22 59 1.6 6.4 0.00 0.81 0.00 86 1016.5
20260903050532 22 59 1.6 6.4 0.00 0.81 0.00 86 1016.5
20260903050057 22 69 3.2 6.4 0.00 0.81 0.00 86 1016.5
20260903045533 22 32 1.6 6.4 0.00 0.81 0.00 86 1016.6
20260903045032 22 5 4.8 6.4 0.00 0.81 0.00 86 1016.7
20260903044549 22 319 3.2 4.8 0.00 0.81 0.00 86 1016.7
20260903044047 22 281 3.2 4.8 0.00 0.81 0.00 86 1016.7
20260903043543 22 189 1.6 4.8 0.00 0.81 0.00 85 1016.6
20260903043043 22 189 0.0 3.2 0.00 0.81 0.00 85 1016.6
20260903042540 22 189 1.6 3.2 0.00 0.81 0.00 85 1016.4
20260903042038 22 189 0.0 6.4 0.00 0.81 0.00 86 1016.6
20260903041536 22 189 1.6 8.0 0.00 0.81 0.00 85 1016.7
20260903041038 22 189 4.8 8.0 0.00 0.81 0.00 85 1016.7
20260903040534 22 198 4.8 8.0 0.00 0.81 0.00 85 1016.7
20260903040034 23 215 1.6 4.8 0.00 0.81 0.00 85 1016.8
20260903035556 23 329 0.0 4.8 0.00 0.81 0.81 85 1017.1
20260903035034 23 329 0.0 6.4 0.00 0.81 0.81 85 1017.2
20260903034532 23 329 3.2 6.4 0.00 0.81 0.81 85 1017.2
20260903034032 23 334 3.2 4.8 0.00 0.81 0.81 84 1017.2
20260903033529 23 175 0.0 3.2 0.00 0.81 0.81 84 1017.0
20260903033028 23 175 0.0 3.2 0.00 0.81 0.81 84 1017.1
20260903032523 23 175 1.6 4.8 0.00 0.81 0.81 84 1017.0
20260903032043 23 175 3.2 4.8 0.00 0.81 0.81 84 1016.9
20260903031602 23 175 1.6 3.2 0.00 0.81 0.81 84 1016.9
20260903031040 23 175 1.6 3.2 0.00 0.81 0.81 84 1017.1
20260903030537 23 175 1.6 4.8 0.00 0.81 0.81 84 1017.0
20260903030036 23 175 1.6 6.4 0.00 0.81 0.81 84 1016.9
20260903025556 23 175 4.8 6.4 0.00 0.81 0.81 84 1017.0
20260903025035 23 175 4.8 6.4 0.00 0.81 0.81 84 1017.2
20260903024536 23 156 3.2 4.8 0.00 0.81 0.81 84 1017.2
20260903024039 23 156 0.0 9.7 0.00 0.81 0.81 84 1017.1
20260903023536 23 156 3.2 12.9 0.00 0.81 0.81 84 1016.9
20260903023036 23 164 4.8 12.9 0.00 0.81 0.81 84 1016.8
20260903022533 23 144 8.0 12.9 0.00 0.81 0.81 84 1016.6
20260903022033 23 140 6.4 12.9 0.00 0.81 0.81 83 1016.5
20260903021530 23 152 6.4 12.9 0.00 0.81 0.81 83 1016.4
20260903021029 23 174 9.7 12.9 0.00 0.81 0.81 83 1016.6
20260903020552 23 153 6.4 12.9 0.00 0.81 0.81 83 1016.6
20260903020030 23 169 6.4 12.9 0.00 0.81 0.81 83 1016.7
20260903015530 23 145 6.4 11.3 0.00 0.81 0.81 82 1016.8
20260903015029 24 160 4.8 8.0 0.00 0.81 0.81 82 1017.0
20260903014527 24 153 4.8 12.9 0.00 0.81 0.81 82 1017.0
20260903014026 24 136 4.8 16.1 0.00 0.81 0.81 82 1017.0
20260903013542 24 132 8.0 16.1 0.00 0.81 0.81 81 1017.1
20260903013041 24 139 6.4 14.5 0.00 0.81 0.81 82 1017.1
20260903012539 24 152 8.0 14.5 0.00 0.81 0.81 81 1017.2
20260903012044 24 138 11.3 14.5 0.00 0.81 0.81 82 1017.0
20260903011539 24 146 9.7 14.5 0.00 0.81 0.81 82 1016.8
20260903011039 24 162 6.4 11.3 0.00 0.81 0.81 82 1016.9
20260903010535 24 153 9.7 11.3 0.00 0.81 0.81 83 1016.9
20260903010059 25 164 8.0 12.9 0.00 0.81 0.81 82 1017.0
20260903005534 25 168 6.4 11.3 0.00 0.81 0.81 82 1016.9
20260903005034 25 159 6.4 11.3 0.00 0.81 0.81 82 1016.7
20260903004531 25 146 4.8 9.7 0.00 0.81 0.81 82 1016.6
20260903004031 25 148 4.8 9.7 0.00 0.81 0.81 82 1016.7
20260903003526 25 140 3.2 11.3 0.00 0.81 0.81 82 1016.7
20260903003051 25 121 6.4 11.3 0.00 0.81 0.81 82 1016.5
20260903002552 25 123 6.4 11.3 0.00 0.81 0.81 82 1016.6
20260903002029 25 168 4.8 8.0 0.00 0.81 0.81 81 1016.8
20260903001526 26 168 4.8 8.0 0.00 0.81 0.81 81 1017.3
20260903001026 26 188 4.8 4.8 0.00 0.81 0.81 81 1017.1
20260903000543 26 188 3.2 8.0 0.00 0.81 0.81 80 1017.2
20260903000027 26 188 4.8 8.0 0.00 0.81 0.81 80 1017.2
20260902235543 26 190 6.4 9.7 0.00 0.81 0.81 80 1017.2
20260902235042 26 208 3.2 9.7 0.00 0.81 0.81 80 1017.3
20260902234540 26 183 6.4 12.9 0.00 0.81 0.81 80 1017.0
20260902234038 26 163 9.7 12.9 0.00 0.81 0.81 80 1017.1
20260902233536 26 186 6.4 11.3 0.00 0.81 0.81 79 1017.2
20260902233035 26 141 3.2 11.3 0.00 0.81 0.81 79 1017.3
20260902232558 26 150 3.2 8.0 0.00 0.81 0.81 79 1017.3
20260902232101 26 150 4.8 8.0 0.00 0.81 0.81 79 1017.2
20260902231537 26 169 4.8 11.3 0.00 0.81 0.81 79 1017.4
20260902231102 27 146 4.8 11.3 0.00 0.81 0.81 78 1017.4
20260902230538 27 150 6.4 11.3 0.00 0.81 0.81 77 1017.5
20260902230038 27 142 6.4 11.3 0.00 0.81 0.81 78 1017.2
20260902225535 27 121 6.4 11.3 0.00 0.81 0.81 77 1016.8
20260902225033 27 120 4.8 11.3 0.00 0.81 0.81 76 1017.1
20260902224531 27 121 4.8 11.3 0.00 0.81 0.81 76 1017.1
20260902224030 27 134 4.8 8.0 0.00 0.81 0.81 76 1017.1
20260902223552 27 182 4.8 8.0 0.00 0.81 0.81 75 1017.0
20260902223034 27 182 3.2 4.8 0.00 0.81 0.81 76 1016.9
20260902222533 28 182 1.6 3.2 0.00 0.81 0.81 75 1016.9
20260902222033 28 182 0.0 3.2 0.00 0.81 0.81 76 1017.0
20260902221535 28 182 0.0 4.8 0.00 0.81 0.81 74 1016.8
20260902221033 28 182 1.6 4.8 0.00 0.81 0.81 73 1017.0
20260902220555 28 182 1.6 6.4 0.00 0.81 0.81 72 1017.0
20260902220033 28 182 0.0 6.4 0.00 0.81 0.81 72 1016.8
20260902215556 28 227 0.0 6.4 0.00 0.81 0.81 72 1017.0
20260902215057 29 227 1.6 6.4 0.00 0.81 0.81 71 1017.2
20260902214534 29 187 0.0 8.0 0.00 0.81 0.81 70 1017.1
20260902214033 29 187 3.2 11.3 0.00 0.81 0.81 69 1017.1
20260902213530 29 144 4.8 11.3 0.00 0.81 0.81 70 1017.2
20260902213048 29 215 1.6 6.4 0.00 0.81 0.81 68 1017.2
20260902212524 29 258 1.6 6.4 0.00 0.81 0.81 71 1017.2
20260902212044 29 190 3.2 6.4 0.00 0.81 0.81 69 1017.2
20260902211541 29 220 3.2 6.4 0.00 0.81 0.81 69 1017.2
20260902211040 29 164 3.2 8.0 0.00 0.81 0.81 70 1017.2
20260902210538 28 269 3.2 6.4 0.00 0.81 0.81 71 1017.2
20260902210036 28 221 3.2 6.4 0.00 0.81 0.81 71 1017.2
20260902205538 28 180 0.0 6.4 0.00 0.81 0.81 72 1017.3
20260902205037 28 180 3.2 8.0 0.00 0.81 0.81 72 1017.4
20260902204534 28 209 4.8 8.0 0.00 0.81 0.81 71 1017.5
20260902204034 28 175 3.2 8.0 0.00 0.81 0.81 72 1017.6
20260902203529 28 188 1.6 8.0 0.00 0.81 0.81 73 1017.8
20260902203055 29 179 4.8 11.3 0.00 0.81 0.81 69 1017.8
20260902202555 29 140 4.8 11.3 0.00 0.81 0.81 72 1017.8
20260902202034 29 143 6.4 11.3 0.00 0.81 0.81 70 1017.7
20260902201532 29 166 1.6 4.8 0.00 0.81 0.81 71 1017.6
20260902201032 29 165 1.6 8.0 0.00 0.81 0.81 71 1017.6
20260902200528 28 159 4.8 11.3 0.00 0.81 0.81 71 1017.6
20260902200029 28 139 3.2 11.3 0.00 0.81 0.81 72 1017.6
20260902195526 28 165 1.6 8.0 0.00 0.81 0.81 72 1017.5
20260902195025 28 165 1.6 8.0 0.00 0.81 0.81 73 1017.5
20260902194540 28 218 1.6 6.4 0.00 0.81 0.81 73 1017.4
20260902194039 28 64 3.2 11.3 0.00 0.81 0.81 72 1017.4
20260902193541 28 173 6.4 11.3 0.00 0.81 0.81 75 1017.4
20260902193040 27 80 4.8 9.7 0.00 0.81 0.81 76 1017.5
20260902192538 27 182 1.6 12.9 0.00 0.81 0.81 77 1017.6
20260902192038 27 186 8.0 17.7 0.00 0.81 0.81 78 1017.8
20260902191535 26 150 11.3 17.7 0.00 0.81 0.81 82 1017.9
20260902191034 26 178 4.8 11.3 0.00 0.81 0.81 84 1018.0
20260902190531 25 190 8.0 11.3 0.00 0.81 0.81 84 1018.0
20260902190030 25 188 6.4 9.7 0.00 0.81 0.81 85 1017.9
20260902185528 25 136 1.6 11.3 0.00 0.81 0.81 87 1018.0
20260902185047 24 165 3.2 11.3 0.00 0.81 0.81 88 1018.1
20260902184524 24 160 6.4 11.3 0.00 0.81 0.81 91 1018.1
20260902184043 23 184 4.8 8.0 0.00 0.81 0.81 89 1018.1
20260902183538 23 220 1.6 6.4 0.00 0.81 0.81 90 1018.2
20260902183103 23 156 1.6 6.4 0.00 0.81 0.81 93 1018.3
20260902182539 23 186 1.6 4.8 0.00 0.81 0.81 93 1018.4
20260902182043 23 103 1.6 4.8 0.00 0.81 0.81 94 1018.3
20260902181605 23 194 0.0 3.2 0.00 0.81 0.81 94 1018.4
20260902181027 22 194 0.0 1.6 0.00 0.81 0.81 94 1018.4
20260902180524 22 194 0.0 1.6 0.00 0.81 0.81 94 1018.2
20260902180044 22 194 0.0 0.0 0.03 0.81 0.81 93 1018.3
20260902175540 22 194 0.0 1.6 0.03 0.81 0.81 93 1018.4
20260902175039 22 194 0.0 4.8 0.03 0.81 0.81 93 1018.5
20260902174536 22 194 3.2 4.8 0.03 0.81 0.81 93 1018.4
20260902174035 22 206 3.2 6.4 0.03 0.81 0.81 93 1018.6
20260902173532 22 169 1.6 4.8 0.03 0.81 0.81 92 1018.7
20260902173033 22 228 1.6 3.2 0.05 0.81 0.81 93 1018.8
20260902172554 22 228 1.6 8.0 0.05 0.81 0.81 92 1018.9
20260902172032 22 186 3.2 9.7 0.08 0.81 0.81 92 1019.1
20260902171529 22 188 4.8 8.0 0.13 0.81 0.81 92 1019.1
20260902171054 22 160 0.0 1.6 0.28 0.81 0.81 93 1019.2
20260902170530 22 160 0.0 1.6 0.41 0.81 0.81 92 1019.3
20260902170030 22 160 0.0 4.8 0.61 0.79 0.79 92 1019.5
20260902165528 22 160 1.6 4.8 0.79 0.79 0.79 91 1019.6
20260902165031 22 108 0.0 6.4 0.79 0.79 0.79 91 1019.4
20260902164549 22 108 3.2 9.7 0.79 0.79 0.79 90 1019.5
20260902164027 22 142 1.6 9.7 0.79 0.79 0.79 89 1019.7
20260902163542 22 87 3.2 9.7 0.79 0.79 0.79 89 1019.7
20260902163042 22 86 6.4 8.0 0.76 0.76 0.76 89 1019.9
20260902162540 22 51 1.6 8.0 0.76 0.76 0.76 88 1020.6
20260902162104 23 32 0.0 8.0 0.74 0.74 0.74 86 1020.9
20260902161540 23 66 3.2 9.7 0.69 0.69 0.69 85 1021.0
20260902161105 24 355 4.8 9.7 0.53 0.53 0.53 84 1021.7
20260902160540 25 277 6.4 25.7 0.41 0.41 0.41 82 1022.3
20260902160038 25 313 12.9 29.0 0.15 0.15 0.15 80 1022.2
20260902155536 26 304 14.5 33.8 0.00 0.00 0.00 80 1021.7
20260902155035 26 43 16.1 37.0 0.00 0.00 0.00 77 1021.2
20260902154531 27 5 19.3 37.0 0.00 0.00 0.00 76 1021.1
20260902154052 27 347 12.9 25.7 0.00 0.00 0.00 74 1020.4
20260902153553 28 41 9.7 20.9 0.00 0.00 0.00 74 1019.7
20260902153032 28 40 8.0 16.1 0.00 0.00 0.00 76 1019.4
20260902152529 28 314 8.0 16.1 0.00 0.00 0.00 75 1019.1
20260902152029 28 344 4.8 12.9 0.00 0.00 0.00 76 1018.8
20260902151529 28 304 3.2 6.4 0.00 0.00 0.00 74 1018.8
20260902151054 28 355 1.6 6.4 0.00 0.00 0.00 73 1018.6
20260902150529 28 355 3.2 6.4 0.00 0.00 0.00 74 1018.6
20260902150028 28 297 1.6 6.4 0.00 0.00 0.00 74 1018.5
20260902145543 28 292 1.6 4.8 0.00 0.03 0.00 72 1018.4
20260902145043 28 292 0.0 6.4 0.00 0.03 0.00 72 1018.4
20260902144540 28 310 0.0 6.4 0.00 0.03 0.00 74 1018.4
20260902144039 28 351 1.6 6.4 0.00 0.03 0.00 75 1018.4
20260902143536 28 315 0.0 6.4 0.00 0.03 0.00 75 1018.3
20260902143036 28 325 3.2 6.4 0.00 0.03 0.00 75 1018.3
20260902142557 27 41 0.0 0.0 0.00 0.03 0.00 74 1018.4
20260902142036 27 41 0.0 0.0 0.00 0.03 0.00 74 1018.3
20260902141558 27 41 0.0 0.0 0.00 0.03 0.00 75 1018.3
20260902141036 27 41 0.0 0.0 0.00 0.03 0.00 76 1018.3
20260902140559 27 41 0.0 3.2 0.00 0.03 0.00 75 1018.3
20260902140034 27 41 0.0 4.8 0.00 0.03 0.00 76 1018.5
20260902135531 27 131 1.6 4.8 0.00 0.03 0.00 75 1018.4
20260902135054 26 131 1.6 8.0 0.00 0.03 0.00 78 1018.4
20260902134531 26 131 1.6 8.0 0.00 0.03 0.00 77 1018.3
20260902134029 26 140 4.8 8.0 0.00 0.03 0.00 77 1018.2
20260902133530 26 111 3.2 6.4 0.00 0.03 0.00 79 1018.3
20260902133030 26 49 1.6 4.8 0.00 0.03 0.00 79 1018.2
20260902132526 25 49 0.0 3.2 0.00 0.03 0.00 80 1018.3
20260902132026 25 80 1.6 4.8 0.00 0.03 0.00 80 1018.4
20260902131543 25 80 1.6 4.8 0.00 0.03 0.00 80 1018.6
20260902131042 25 334 0.0 3.2 0.00 0.03 0.00 82 1018.6
20260902130539 25 334 0.0 1.6 0.00 0.03 0.00 81 1018.6
20260902130039 25 334 0.0 1.6 0.00 0.03 0.00 83 1018.5
20260902125536 24 334 0.0 1.6 0.00 0.03 0.00 83 1018.5
20260902125036 24 334 0.0 4.8 0.00 0.03 0.00 83 1018.3
20260902124559 24 334 0.0 4.8 0.00 0.03 0.00 83 1018.3
20260902124103 23 334 3.2 4.8 0.00 0.03 0.00 84 1018.4
20260902123538 23 334 0.0 3.2 0.00 0.03 0.00 84 1018.3
20260902123102 23 334 0.0 4.8 0.00 0.03 0.00 85 1018.2
20260902122538 23 334 0.0 3.2 0.00 0.03 0.00 85 1018.1
20260902122041 23 302 0.0 4.8 0.00 0.03 0.00 86 1018.0
20260902121539 23 324 1.6 8.0 0.00 0.03 0.00 86 1018.0
20260902121038 23 13 0.0 8.0 0.00 0.03 0.00 86 1018.0
20260902120540 23 339 3.2 6.4 0.00 0.03 0.00 86 1018.1
20260902120038 22 355 3.2 6.4 0.00 0.03 0.00 87 1018.2
20260902115535 22 23 1.6 4.8 0.00 0.03 0.00 87 1018.1
20260902115034 22 11 1.6 4.8 0.00 0.03 0.00 87 1018.0
20260902114531 22 5 1.6 4.8 0.00 0.03 0.00 88 1018.0
20260902114050 22 360 0.0 1.6 0.00 0.03 0.00 88 1017.9
20260902113525 22 360 0.0 3.2 0.00 0.03 0.00 88 1017.8
20260902113025 22 360 0.0 4.8 0.00 0.03 0.00 88 1017.9
20260902112542 22 360 1.6 4.8 0.00 0.03 0.00 88 1017.8
20260902112040 22 355 1.6 4.8 0.00 0.03 0.00 88 1018.0
20260902111538 22 61 0.0 4.8 0.00 0.03 0.00 87 1017.7
20260902111102 22 61 0.0 6.4 0.00 0.03 0.00 87 1017.7
20260902110538 22 80 3.2 6.4 0.00 0.03 0.00 87 1017.5
20260902110037 22 17 3.2 4.8 0.00 0.03 0.00 87 1017.5
20260902105534 22 329 0.0 3.2 0.00 0.03 0.00 87 1017.7
20260902105033 22 329 0.0 3.2 0.00 0.03 0.00 87 1017.7
20260902104551 22 329 1.6 8.0 0.00 0.03 0.00 86 1017.8
20260902104053 22 329 3.2 8.0 0.00 0.03 0.00 86 1017.8
20260902103551 22 316 3.2 4.8 0.00 0.03 0.00 86 1017.7
20260902103033 22 165 0.0 4.8 0.00 0.03 0.00 86 1017.6
20260902102532 22 165 1.6 4.8 0.00 0.03 0.00 86 1017.6
20260902102030 22 165 3.2 6.4 0.00 0.03 0.00 86 1017.6
20260902101553 22 165 0.0 3.2 0.00 0.03 0.00 86 1017.6
20260902101051 22 165 0.0 0.0 0.00 0.03 0.00 85 1017.6
20260902100527 22 165 0.0 0.0 0.00 0.03 0.00 85 1017.6
20260902100027 22 165 0.0 0.0 0.00 0.03 0.00 85 1017.7
20260902095543 22 165 0.0 0.0 0.00 0.03 0.00 85 1017.7
20260902095042 22 165 0.0 0.0 0.00 0.03 0.00 85 1017.6
20260902094604 22 165 0.0 4.8 0.00 0.03 0.00 85 1017.5
20260902094042 22 165 1.6 8.0 0.00 0.03 0.00 85 1017.5
20260902093539 22 165 4.8 8.0 0.00 0.03 0.00 85 1017.5
20260902093038 22 165 3.2 8.0 0.00 0.03 0.00 85 1017.4
20260902092533 22 165 6.4 8.0 0.00 0.03 0.00 86 1017.4
20260902092034 22 165 4.8 9.7 0.00 0.03 0.00 86 1017.6
20260902091530 22 164 4.8 9.7 0.00 0.03 0.00 86 1017.6
20260902091055 22 150 4.8 12.9 0.00 0.03 0.00 86 1017.5
20260902090531 22 151 8.0 16.1 0.00 0.03 0.00 86 1017.5
20260902090034 22 147 11.3 16.1 0.00 0.03 0.00 86 1017.4
20260902085533 22 139 8.0 14.5 0.00 0.03 0.00 86 1017.5
20260902085052 22 123 8.0 14.5 0.00 0.03 0.00 86 1017.4
20260902084529 22 144 8.0 12.9 0.00 0.03 0.00 86 1017.3
20260902084048 22 143 6.4 11.3 0.00 0.03 0.00 86 1017.3
20260902083525 22 140 4.8 11.3 0.00 0.03 0.00 86 1017.4
20260902083050 22 153 4.8 9.7 0.00 0.03 0.00 86 1017.3
20260902082526 22 146 1.6 8.0 0.00 0.03 0.00 86 1017.4
20260902082026 22 146 6.4 8.0 0.00 0.03 0.00 85 1017.3
20260902081542 22 149 6.4 11.3 0.00 0.03 0.00 85 1017.3
20260902081040 22 146 6.4 11.3 0.00 0.03 0.00 85 1017.2
20260902080537 22 128 3.2 9.7 0.00 0.03 0.00 86 1017.2
20260902080037 22 144 1.6 6.4 0.00 0.03 0.00 85 1017.3
20260902075535 22 130 4.8 6.4 0.00 0.03 0.00 85 1017.3
20260902075035 23 130 1.6 4.8 0.00 0.03 0.00 85 1017.2
20260902074532 23 275 1.6 4.8 0.00 0.03 0.00 85 1017.2
20260902074057 23 275 0.0 0.0 0.00 0.03 0.00 85 1017.1
20260902073557 23 275 0.0 0.0 0.00 0.03 0.00 85 1017.1
20260902073101 23 275 0.0 0.0 0.00 0.03 0.00 86 1017.0
20260902072537 23 275 0.0 0.0 0.00 0.03 0.00 86 1017.1
20260902072041 23 275 0.0 0.0 0.00 0.03 0.00 85 1017.0
20260902071538 23 275 0.0 3.2 0.00 0.03 0.00 85 1017.0
20260902071103 23 275 0.0 3.2 0.00 0.03 0.00 85 1017.0
20260902070604 23 275 1.6 3.2 0.00 0.03 0.00 85 1017.0
20260902070042 23 275 0.0 0.0 0.00 0.03 0.00 84 1017.1
20260902065537 23 275 0.0 0.0 0.00 0.03 0.00 85 1017.1
20260902065037 23 275 0.0 0.0 0.00 0.03 0.00 84 1017.1
20260902064559 23 275 0.0 0.0 0.00 0.03 0.00 84 1017.0
20260902064037 23 275 0.0 0.0 0.00 0.03 0.00 83 1017.0
20260902063559 23 275 0.0 0.0 0.00 0.03 0.00 84 1016.9
20260902063037 23 275 0.0 0.0 0.00 0.03 0.00 83 1017.0
20260902062534 23 275 0.0 0.0 0.00 0.03 0.00 83 1017.1
20260902062033 23 275 0.0 0.0 0.00 0.03 0.00 83 1017.2
20260902061035 23 275 0.0 0.0 0.00 0.03 0.00 82 1017.2
20260902060532 23 275 0.0 0.0 0.00 0.03 0.00 82 1017.3
20260902060031 23 275 0.0 0.0 0.00 0.03 0.00 82 1017.3
20260902055548 23 275 0.0 0.0 0.00 0.03 0.00 81 1017.3
20260902055025 23 275 0.0 0.0 0.00 0.03 0.00 81 1017.4
20260902054525 24 275 0.0 1.6 0.00 0.03 0.00 81 1017.5
20260902054025 24 275 0.0 1.6 0.00 0.03 0.00 80 1017.6